Change the Weather History Date:

Monday, October 28, 2013

  Actual Average Record
Temperature  
Mean Temperature 70 °F 67 °F  
Max Temperature 81 °F 78 °F 92 °F (1927)
Min Temperature 59 °F 56 °F 35 °F (1898)
Degree Days  
Heating Degree Days 0 2  
Month to date heating degree days 18 26  
Since 1 July heating degree days 18 27  
Cooling Degree Days 5 4  
Month to date cooling degree days 177 182  
Year to date cooling degree days 2886 2722  
Growing Degree Days 20 (Base 50)    
Moisture  
Dew Point 63 °F    
Average Humidity 84    
Maximum Humidity 100    
Minimum Humidity 67    
Precipitation  
Precipitation T in 0.17 in 3.24 in (1985)
Month to date precipitation 1.44 4.39  
Year to date precipitation 50.13 47.87  
Snow  
Snow 0.00 in 0.00 in 0.00 in ()
Month to date snowfall 0.0 0.0  
Since 1 July snowfall 0.0 0.0  
Since 1 September snowfall 0.0 0.0  
Snow Depth 0.00 in    
Sea Level Pressure  
Sea Level Pressure 30.09 in    
Wind  
Wind Speed 4 mph (ESE)    
Max Wind Speed 17 mph    
Max Gust Speed 21 mph    
Visibility 5 miles    
Events Fog    
T = Trace of Precipitation, MM = Missing Value Source: NWS Daily Summary

Daily Weather History Graph

Daily Weather History Graph

Search for Another Location

Airport or City:

Trip Planner

Search our weather history database for the weather conditions in past years. The results will help you decide how hot, cold, wet, or windy it might be!

Date:

Astronomy

Oct. 28, 2013 Rise Set
Actual Time 7:24 AM CDT 6:28 PM CDT
Civil Twilight 6:59 AM CDT 6:53 PM CDT
Nautical Twilight 6:31 AM CDT 7:21 PM CDT
Astronomical Twilight 6:03 AM CDT 7:49 PM CDT
Moon 1:42 AM CDT (10/28) 2:48 PM CDT (10/28)
Length of Visible Light 11h 53m
Length of Day
11h 04m
Waning Crescent, 34% of the Moon is Illuminated
Oct 28
Waning Crescent
Nov 3
New
Nov 9
First Quarter
Nov 17
Full
Nov 25
Last Quarter

Hourly Weather History & Observations

Time (CDT) Temp. Heat Index Dew Point Humidity Pressure Visibility Wind Dir Wind Speed Gust Speed Precip Events Conditions
12:53 AM 60.1 °F - 60.1 °F 100% 30.07 in 0.5 mi Calm Calm - N/A Fog Fog
1:49 AM 60.8 °F - 59.0 °F 94% 30.04 in 0.5 mi Calm Calm - N/A Fog Fog
1:53 AM 60.1 °F - 59.0 °F 96% 30.06 in 0.5 mi Calm Calm - N/A Fog Fog
2:02 AM 60.8 °F - 60.8 °F 100% 30.04 in 1.0 mi Calm Calm - N/A   Overcast
2:07 AM 60.8 °F - 60.8 °F 100% 30.04 in 4.0 mi Calm Calm - N/A   Overcast
2:20 AM 60.8 °F - 60.8 °F 100% 30.04 in 1.5 mi WNW 3.5 mph - N/A   Overcast
2:25 AM 60.8 °F - 60.8 °F 100% 30.04 in 0.8 mi NW 3.5 mph - N/A   Overcast
2:46 AM 60.8 °F - 60.8 °F 100% 30.04 in 2.0 mi Calm Calm - N/A   Overcast
2:53 AM 62.1 °F - 61.0 °F 96% 30.06 in 5.0 mi NW 3.5 mph - N/A   Overcast
2:58 AM 62.6 °F - 60.8 °F 94% 30.04 in 1.8 mi Calm Calm - N/A   Overcast
3:05 AM 62.6 °F - 60.8 °F 94% 30.04 in 1.5 mi Calm Calm - N/A   Overcast
3:08 AM 62.6 °F - 60.8 °F 94% 30.04 in 3.0 mi Calm Calm - N/A   Overcast
3:18 AM 60.8 °F - 60.8 °F 100% 30.04 in 6.0 mi Calm Calm - N/A   Overcast
3:22 AM 60.8 °F - 60.8 °F 100% 30.04 in 1.8 mi Calm Calm - N/A   Overcast
3:26 AM 60.8 °F - 60.8 °F 100% 30.04 in 0.5 mi Calm Calm - N/A Fog Fog
3:45 AM 60.8 °F - 60.8 °F 100% 30.04 in 1.0 mi Calm Calm - N/A   Mist
3:53 AM 60.1 °F - 60.1 °F 100% 30.07 in 0.5 mi Calm Calm - N/A Fog Fog
4:14 AM 60.8 °F - 60.8 °F 100% 30.04 in 0.2 mi Calm Calm - N/A Fog Fog
4:27 AM 60.8 °F - 59.0 °F 94% 30.04 in 1.0 mi Calm Calm - N/A   Mist
4:31 AM 60.8 °F - 59.0 °F 94% 30.04 in 3.0 mi Calm Calm - N/A   Mostly Cloudy
4:50 AM 60.8 °F - 59.0 °F 94% 30.05 in 1.8 mi Calm Calm - N/A   Overcast
4:53 AM 60.1 °F - 59.0 °F 96% 30.08 in 1.2 mi Calm Calm - N/A   Overcast
5:02 AM 60.8 °F - 59.0 °F 94% 30.06 in 0.5 mi Calm Calm - N/A Fog Fog
5:17 AM 59.0 °F - 57.2 °F 94% 30.06 in 2.0 mi SE 3.5 mph - N/A   Overcast
5:30 AM 59.0 °F - 59.0 °F 100% 30.05 in 1.5 mi Calm Calm - N/A   Mostly Cloudy
5:35 AM 59.0 °F - 59.0 °F 100% 30.05 in 3.0 mi ESE 3.5 mph - N/A   Mostly Cloudy
5:45 AM 60.8 °F - 60.8 °F 100% 30.06 in 8.0 mi SE 3.5 mph - N/A   Scattered Clouds
5:53 AM 60.1 °F - 59.0 °F 96% 30.09 in 3.0 mi SE 3.5 mph - N/A   Mostly Cloudy
5:56 AM 59.0 °F - 59.0 °F 100% 30.07 in 2.5 mi Calm Calm - N/A   Mostly Cloudy
6:05 AM 60.8 °F - 59.0 °F 94% 30.07 in 1.8 mi ESE 3.5 mph - N/A   Mostly Cloudy
6:23 AM 60.8 °F - 60.8 °F 100% 30.07 in 3.0 mi Calm Calm - N/A   Overcast
6:35 AM 60.8 °F - 60.8 °F 100% 30.07 in 1.0 mi Calm Calm - N/A   Overcast
6:42 AM 60.8 °F - 60.8 °F 100% 30.08 in 0.8 mi Calm Calm - N/A   Mist
6:53 AM 61.0 °F - 60.1 °F 97% 30.11 in 0.5 mi Calm Calm - N/A Fog Fog
7:29 AM 60.8 °F - 60.8 °F 100% 30.10 in 1.0 mi NE 3.5 mph - N/A   Mist
7:36 AM 60.8 °F - 60.8 °F 100% 30.10 in 0.5 mi Calm Calm - N/A Fog Fog
7:51 AM 60.8 °F - 60.8 °F 100% 30.10 in 2.0 mi Calm Calm - N/A   Mostly Cloudy
7:53 AM 60.1 °F - 60.1 °F 100% 30.12 in 0.5 mi Calm Calm - N/A Fog Fog
8:34 AM 62.6 °F - 62.6 °F 100% 30.12 in 2.0 mi Calm Calm - N/A   Mostly Cloudy
8:42 AM 62.6 °F - 62.6 °F 100% 30.12 in 5.0 mi Calm Calm - N/A   Scattered Clouds
8:53 AM 64.0 °F - 63.0 °F 96% 30.15 in 6.0 mi Calm Calm - N/A   Partly Cloudy
9:53 AM 71.1 °F - 66.9 °F 87% 30.17 in 10.0 mi ENE 3.5 mph - N/A   Clear
10:53 AM 75.0 °F - 66.9 °F 76% 30.17 in 10.0 mi East 5.8 mph - N/A   Clear
11:53 AM 77.0 °F - 69.1 °F 76% 30.17 in 10.0 mi Variable 3.5 mph - N/A   Mostly Cloudy
12:53 PM 80.1 °F 82.7 °F 68.0 °F 67% 30.15 in 10.0 mi NNW 3.5 mph - N/A   Mostly Cloudy
1:53 PM 78.1 °F - 69.1 °F 74% 30.13 in 10.0 mi SE 3.5 mph - N/A   Overcast
2:53 PM 79.0 °F - 69.1 °F 72% 30.11 in 10.0 mi East 8.1 mph - N/A   Clear
3:53 PM 79.0 °F - 66.9 °F 66% 30.11 in 10.0 mi SE 11.5 mph - 0.00 in   Overcast
4:53 PM 78.1 °F - 66.9 °F 68% 30.12 in 10.0 mi SE 6.9 mph - N/A   Mostly Cloudy
5:53 PM 77.0 °F - 68.0 °F 74% 30.11 in 10.0 mi East 3.5 mph - N/A   Scattered Clouds
6:53 PM 72.0 °F - 68.0 °F 87% 30.13 in 10.0 mi SE 3.5 mph - N/A   Scattered Clouds
7:17 PM 73.4 °F - 69.8 °F 88% 30.11 in 10.0 mi ESE 4.6 mph - N/A   Mostly Cloudy
7:26 PM 71.6 °F - 68.0 °F 88% 30.11 in 10.0 mi SE 4.6 mph - N/A   Scattered Clouds
7:53 PM 70.0 °F - 68.0 °F 93% 30.15 in 10.0 mi SSE 4.6 mph - N/A   Clear
8:53 PM 69.1 °F - 66.9 °F 93% 30.15 in 10.0 mi SSE 5.8 mph - N/A   Clear
9:53 PM 69.1 °F - 66.9 °F 93% 30.16 in 10.0 mi SE 5.8 mph - N/A   Clear
10:53 PM 66.9 °F - 66.0 °F 97% 30.17 in 10.0 mi ESE 3.5 mph - N/A   Clear
11:53 PM 66.9 °F - 66.0 °F 97% 30.17 in 10.0 mi SE 5.8 mph - N/A   Clear